EW9135 Weather Reports


time (UTC)temp
F
wind
direction
speed
knots
gust
knots
rain 1hr
in
rain 24hr
in
rain mn
in
humidity
%
barometer
mb
20260902072907 62 234 0.0 0.0 0.00 0.01 0.00 32 1023.1
20260902072902 62 250 0.0 0.0 0.00 0.01 0.00 32 1023.1
20260902071856 62 202 0.0 0.0 0.00 0.01 0.00 33 1023.5
20260902071351 62 203 0.0 0.0 0.00 0.01 0.00 33 1023.1
20260902070846 62 225 0.0 0.0 0.00 0.01 0.00 33 1023.1
20260902070342 62 218 0.0 0.0 0.00 0.01 0.00 33 1023.5
20260902070336 62 218 0.0 0.0 0.00 0.01 0.01 34 1023.1
20260902065329 62 230 0.0 0.0 0.00 0.01 0.01 34 1023.1
20260902064826 62 245 0.0 0.0 0.00 0.01 0.01 34 1023.5
20260902064319 62 195 0.0 0.0 0.00 0.01 0.01 33 1023.1
20260902063814 63 195 0.0 0.0 0.00 0.01 0.01 33 1023.5
20260902063309 63 196 0.0 0.0 0.00 0.01 0.01 33 1023.5
20260902062804 63 206 0.0 0.0 0.00 0.01 0.01 32 1023.1
20260902062259 63 226 0.0 0.0 0.00 0.01 0.01 32 1023.5
20260902061753 63 217 0.0 0.0 0.00 0.01 0.01 31 1023.5
20260902061249 63 251 0.0 0.0 0.00 0.01 0.01 31 1023.1
20260902061243 63 203 0.0 0.0 0.00 0.01 0.01 31 1023.1
20260902060238 63 207 0.0 0.0 0.00 0.01 0.01 31 1023.1
20260902055732 63 247 0.0 0.0 0.00 0.01 0.01 31 1023.5
20260902055227 63 274 0.0 0.0 0.00 0.01 0.01 31 1023.5
20260902055222 63 240 0.0 0.0 0.00 0.01 0.01 33 1023.5
20260902054216 63 218 0.0 0.0 0.00 0.01 0.01 32 1023.5
20260902053710 63 218 0.0 0.0 0.00 0.01 0.01 31 1023.5
20260902053205 63 238 0.0 0.0 0.00 0.01 0.01 31 1023.5
20260902052659 63 221 0.0 0.0 0.00 0.01 0.01 31 1023.5
20260902052155 63 210 0.0 0.0 0.00 0.01 0.01 31 1023.5
20260902051649 63 252 0.0 0.0 0.00 0.01 0.01 31 1023.5
20260902051143 63 227 0.0 0.0 0.00 0.01 0.01 31 1023.5
20260902050638 63 238 0.0 0.0 0.00 0.01 0.01 31 1023.8
20260902050633 63 219 0.0 0.0 0.00 0.01 0.01 30 1023.5
20260902045628 64 206 0.0 0.0 0.00 0.01 0.01 30 1023.8
20260902045122 64 217 0.0 0.0 0.00 0.01 0.01 30 1023.5
20260902044617 64 189 0.0 0.0 0.00 0.01 0.01 29 1023.8
20260902044112 64 217 0.0 0.0 0.00 0.01 0.01 29 1023.5
20260902043607 64 197 0.0 0.0 0.00 0.01 0.01 29 1023.5
20260902043101 64 201 0.0 0.0 0.00 0.01 0.01 28 1023.5
20260902042556 65 208 0.0 0.9 0.00 0.01 0.01 30 1023.5
20260902042052 65 281 0.0 0.9 0.00 0.01 0.01 30 1023.5
20260902042047 65 242 0.0 0.0 0.00 0.01 0.01 30 1023.5
20260902041040 66 252 0.0 0.0 0.00 0.01 0.01 30 1023.5
20260902040535 66 242 0.0 0.0 0.00 0.01 0.01 29 1023.5
20260902040528 67 249 0.0 0.0 0.00 0.01 0.01 30 1023.1
20260902040133 66 246 0.0 0.0 0.00 0.01 0.01 31 1023.5
20260902035021 67 184 0.0 0.0 0.00 0.01 0.01 29 1023.1
20260902035015 67 258 0.0 0.0 0.00 0.01 0.01 28 1023.1
20260902034011 67 188 0.0 0.0 0.00 0.01 0.01 28 1023.1
20260902034006 67 277 0.0 0.0 0.00 0.01 0.01 28 1023.1
20260902032959 67 277 0.0 0.0 0.00 0.01 0.01 27 1023.1
20260902032454 67 183 0.0 0.0 0.00 0.01 0.01 27 1022.8
20260902031948 67 240 0.0 0.0 0.00 0.01 0.01 27 1023.1
20260902031442 67 210 0.0 0.0 0.00 0.01 0.01 27 1022.4
20260902030937 67 95 0.0 0.9 0.00 0.01 0.01 27 1022.8
20260902030432 68 244 0.0 0.9 0.00 0.01 0.01 27 1022.4
20260902025926 68 223 0.0 0.0 0.00 0.01 0.01 27 1022.8
20260902025425 68 202 0.0 0.0 0.00 0.01 0.01 27 1022.4
20260902025421 68 237 0.0 0.0 0.00 0.01 0.01 27 1022.4
20260902024410 68 203 0.0 0.0 0.00 0.01 0.01 27 1022.4
20260902023905 68 232 0.0 0.0 0.00 0.01 0.01 26 1022.4
20260902023400 69 267 0.0 0.0 0.00 0.01 0.01 25 1022.1
20260902022854 69 248 0.0 0.0 0.00 0.01 0.01 25 1022.1
20260902022349 69 279 0.0 0.0 0.00 0.01 0.01 25 1022.4
20260902021844 69 258 0.0 0.0 0.00 0.01 0.01 24 1022.4
20260902021338 69 227 0.0 0.0 0.00 0.01 0.01 24 1022.1
20260902021329 70 298 0.0 1.7 0.00 0.01 0.01 23 1022.1
20260902020933 69 300 0.0 0.0 0.00 0.01 0.01 23 1022.1
20260902015823 70 307 0.9 1.7 0.00 0.01 0.01 22 1022.1
20260902015318 70 249 0.0 0.0 0.00 0.01 0.01 23 1022.1
20260902014812 70 207 0.0 0.0 0.00 0.01 0.01 21 1022.1
20260902014307 71 225 0.0 0.9 0.00 0.01 0.01 21 1021.8
20260902013802 71 186 0.0 0.9 0.00 0.01 0.01 21 1021.8
20260902013257 71 202 0.0 0.9 0.00 0.01 0.01 20 1022.1
20260902012247 71 307 0.0 2.6 0.00 0.01 0.01 21 1022.1
20260902012242 71 251 0.0 0.0 0.00 0.01 0.01 20 1021.8
20260902011236 72 114 0.0 0.9 0.00 0.01 0.01 20 1022.1
20260902010730 72 49 0.0 1.7 0.00 0.01 0.01 20 1021.8
20260902010225 72 288 0.0 2.6 0.00 0.01 0.01 19 1021.8
20260902005719 72 303 0.0 2.6 0.00 0.01 0.01 18 1021.8
20260902005214 72 230 0.0 0.9 0.00 0.01 0.01 18 1021.8
20260902004709 73 339 0.0 0.9 0.00 0.01 0.01 18 1021.8
20260902004204 73 285 0.0 1.7 0.00 0.01 0.01 18 1021.8
20260902003700 73 306 0.0 1.7 0.00 0.01 0.01 18 1021.8
20260902003655 73 228 0.0 1.7 0.00 0.01 0.01 18 1021.4
20260902002648 73 101 0.0 3.5 0.00 0.01 0.01 18 1021.8
20260902002143 73 237 0.0 3.5 0.00 0.01 0.01 18 1021.8
20260902001637 73 265 0.0 0.9 0.00 0.01 0.01 18 1021.8
20260902001132 74 241 0.0 2.6 0.00 0.01 0.01 18 1021.4
20260902000627 74 300 0.0 2.6 0.00 0.01 0.01 18 1021.4
20260902000121 74 215 0.0 3.5 0.00 0.01 0.01 18 1021.4
20260901235616 74 319 0.0 3.5 0.00 0.01 0.01 14 1021.4
20260901235610 74 200 0.0 2.6 0.00 0.01 0.01 14 1021.4
20260901234604 75 58 0.0 2.6 0.00 0.01 0.01 13 1021.4
20260901234059 75 183 0.0 0.9 0.00 0.01 0.01 13 1021.4
20260901233554 75 199 0.0 0.9 0.00 0.01 0.01 12 1021.4
20260901233049 75 278 0.0 2.6 0.00 0.01 0.01 12 1021.4
20260901232544 76 314 0.0 2.6 0.00 0.01 0.01 14 1021.4
20260901232038 76 304 0.0 1.7 0.00 0.01 0.01 13 1021.8
20260901232033 76 196 0.0 1.7 0.00 0.01 0.01 12 1021.4
20260901231029 77 273 0.0 2.6 0.00 0.01 0.01 12 1021.4
20260901231024 77 197 0.0 2.6 0.00 0.01 0.01 11 1021.8
20260901230018 78 217 0.0 2.6 0.00 0.01 0.01 11 1021.8
20260901225512 78 214 0.0 0.9 0.00 0.01 0.01 10 1021.8
20260901225507 79 244 0.0 0.9 0.00 0.01 0.01 10 1021.4
20260901224502 79 162 0.0 1.7 0.00 0.01 0.01 10 1021.4
20260901223956 79 271 0.0 2.6 0.00 0.01 0.01 11 1021.4
20260901223451 79 288 0.0 2.6 0.00 0.01 0.01 11 1021.4
20260901222945 80 250 0.0 1.7 0.00 0.01 0.01 11 1021.8
20260901222442 80 0 0.0 1.7 0.00 0.01 0.01 10 1021.8
20260901222436 80 336 0.0 0.0 0.00 0.01 0.01 10 1021.8
20260901221431 80 144 0.0 0.9 0.00 0.01 0.01 10 1021.8
20260901221426 80 242 0.0 0.9 0.00 0.01 0.01 10 1021.8
20260901220421 80 204 0.0 0.0 0.00 0.01 0.01 10 1021.8
20260901220415 80 220 0.0 0.0 0.00 0.01 0.01 10 1022.1
20260901215408 80 270 0.0 0.0 0.00 0.01 0.01 10 1021.8
20260901214904 81 281 0.0 0.0 0.00 0.01 0.01 10 1021.8
20260901214854 81 206 0.0 0.9 0.00 0.01 0.01 10 1022.1
20260901214459 80 194 0.0 0.9 0.00 0.01 0.01 10 1022.1
20260901213348 81 246 0.0 5.2 0.00 0.01 0.01 10 1022.1
20260901212842 81 250 0.0 5.2 0.00 0.01 0.01 10 1022.1
20260901212337 80 225 0.0 0.0 0.00 0.01 0.01 12 1022.1
20260901211832 79 266 0.0 0.0 0.00 0.01 0.01 10 1022.1
20260901211326 79 189 0.0 0.0 0.00 0.01 0.01 10 1022.1
20260901210820 78 215 0.0 0.0 0.00 0.01 0.01 10 1022.1
20260901210316 77 249 0.0 0.0 0.00 0.01 0.01 10 1022.1
20260901205810 77 298 0.0 0.0 0.00 0.01 0.01 10 1022.1
20260901205306 76 175 0.0 0.0 0.00 0.01 0.01 10 1021.8
20260901205300 76 233 0.0 0.0 0.00 0.01 0.01 10 1021.8
20260901204253 76 233 0.0 0.0 0.00 0.01 0.01 10 1022.4
20260901203749 76 181 0.0 0.0 0.00 0.01 0.01 11 1022.4
20260901203743 76 202 0.0 0.0 0.00 0.01 0.01 10 1022.4
20260901202739 76 185 0.0 0.0 0.00 0.01 0.01 11 1022.1
20260901202235 76 199 0.0 0.9 0.00 0.01 0.01 11 1022.4
20260901202230 77 202 0.0 0.9 0.00 0.01 0.01 12 1022.8
20260901201222 77 210 0.0 0.0 0.00 0.01 0.01 11 1022.4
20260901200719 77 219 0.0 0.9 0.00 0.01 0.01 11 1022.8
20260901200214 77 262 0.0 0.0 0.00 0.01 0.01 10 1022.4
20260901200209 77 219 0.0 0.9 0.00 0.01 0.01 11 1022.8
20260901195201 78 178 0.0 0.9 0.00 0.01 0.01 12 1022.8
20260901194658 78 29 0.0 0.0 0.00 0.01 0.01 10 1022.8
20260901194151 77 211 0.0 0.0 0.00 0.01 0.01 14 1022.4
20260901193646 78 231 0.0 0.0 0.00 0.01 0.01 11 1022.8
20260901193140 77 219 0.0 0.0 0.00 0.01 0.01 11 1022.8
20260901192636 78 221 0.0 0.0 0.00 0.01 0.01 12 1022.8
20260901191624 78 293 0.0 0.9 0.00 0.01 0.01 11 1023.1
20260901191119 77 22 0.0 0.0 0.00 0.01 0.01 10 1023.1
20260901190613 77 173 0.0 0.0 0.00 0.01 0.01 12 1023.1
20260901190108 77 107 0.0 0.0 0.00 0.01 0.01 10 1023.1
20260901185604 76 189 0.0 0.0 0.00 0.01 0.01 10 1023.1
20260901185559 76 231 0.0 0.0 0.00 0.01 0.01 10 1023.1
20260901184552 75 240 0.0 0.0 0.00 0.01 0.01 12 1023.1
20260901184047 75 258 0.0 0.0 0.00 0.01 0.01 12 1023.1
20260901183542 74 242 0.0 0.0 0.00 0.01 0.01 11 1023.1
20260901183037 74 238 0.0 0.0 0.00 0.01 0.01 11 1023.1
20260901182531 73 275 0.0 0.0 0.00 0.01 0.01 11 1022.8
20260901182026 73 255 0.0 0.0 0.00 0.01 0.01 13 1023.5
20260901181521 72 166 0.0 0.0 0.00 0.01 0.01 14 1023.5
20260901181516 72 192 0.0 0.0 0.00 0.01 0.01 17 1022.8
20260901180510 72 256 0.0 0.9 0.00 0.01 0.01 17 1023.1
20260901180005 71 38 0.0 0.9 0.00 0.01 0.01 18 1023.5
20260901175459 71 232 0.0 0.0 0.00 0.01 0.01 19 1023.1
20260901174954 71 328 0.0 0.0 0.00 0.01 0.01 19 1023.1
20260901174449 71 209 0.0 0.0 0.00 0.01 0.01 19 1022.8
20260901174444 71 195 0.0 0.0 0.00 0.01 0.01 18 1023.1
20260901173437 70 202 0.0 0.0 0.00 0.01 0.01 18 1022.8
20260901172931 70 261 0.0 0.0 0.00 0.01 0.01 19 1022.8
20260901172427 69 228 0.0 0.0 0.00 0.01 0.01 20 1022.8
20260901171921 69 294 0.0 0.0 0.00 0.01 0.01 19 1022.8
20260901171416 69 218 0.0 0.0 0.00 0.01 0.01 20 1022.8
20260901170910 69 187 0.0 0.9 0.00 0.01 0.01 21 1022.8
20260901170405 68 230 0.0 0.9 0.00 0.01 0.01 22 1022.4
20260901165900 68 303 0.0 0.0 0.00 0.01 0.01 22 1022.8
20260901165355 68 234 0.0 0.0 0.00 0.01 0.01 22 1022.8
20260901164851 68 185 0.0 0.0 0.00 0.01 0.01 23 1022.8
20260901164845 68 242 0.0 0.9 0.00 0.01 0.01 23 1022.8
20260901163838 68 230 0.0 0.9 0.00 0.01 0.01 24 1022.8
20260901163333 69 245 0.0 0.0 0.00 0.01 0.01 24 1022.8
20260901163325 69 192 0.0 0.0 0.00 0.01 0.01 24 1023.1
20260901162930 69 280 0.0 0.0 0.00 0.01 0.01 24 1022.8
20260901161818 69 255 0.0 0.9 0.00 0.01 0.01 22 1022.8
20260901161809 69 168 0.0 0.0 0.00 0.01 0.01 20 1022.8
20260901161413 69 156 0.0 0.9 0.00 0.01 0.01 21 1022.8
20260901160303 69 277 0.0 0.0 0.00 0.01 0.01 20 1022.8
20260901155757 68 206 0.0 0.0 0.00 0.01 0.01 21 1022.4
20260901155252 68 280 0.0 0.0 0.00 0.01 0.01 21 1022.4
20260901154747 67 36 0.0 0.0 0.00 0.01 0.01 23 1022.4
20260901154241 67 198 0.0 0.0 0.00 0.01 0.01 22 1022.1
20260901153736 66 221 0.0 0.0 0.00 0.01 0.01 24 1022.4
20260901153230 66 172 0.0 0.0 0.00 0.01 0.01 23 1022.1
20260901152725 65 155 0.0 0.0 0.00 0.01 0.01 25 1022.4
20260901152220 65 191 0.0 0.9 0.00 0.01 0.01 26 1022.4
20260901151715 64 319 0.0 0.9 0.00 0.01 0.01 29 1022.1
20260901151210 64 244 0.0 0.0 0.00 0.01 0.01 32 1021.8
20260901150704 63 192 0.0 0.0 0.00 0.01 0.01 30 1021.8
20260901150159 62 194 0.0 0.0 0.00 0.01 0.01 28 1021.8
20260901145653 61 207 0.0 0.0 0.00 0.01 0.01 30 1022.1
20260901145147 60 219 0.0 0.0 0.00 0.01 0.01 30 1021.8
20260901144643 59 211 0.0 0.0 0.00 0.01 0.01 33 1021.8
20260901144138 58 238 0.0 0.0 0.00 0.01 0.01 37 1021.8
20260901143633 58 231 0.0 0.0 0.00 0.01 0.01 37 1021.8
20260901143126 57 217 0.0 0.0 0.00 0.01 0.01 39 1021.8
20260901142621 57 221 0.0 0.0 0.00 0.01 0.01 39 1021.8
20260901142115 57 215 0.0 0.0 0.00 0.01 0.01 39 1021.8
20260901141611 57 229 0.0 0.0 0.00 0.01 0.01 39 1021.4
20260901141105 57 220 0.0 0.0 0.00 0.01 0.01 39 1021.8
20260901140601 57 191 0.0 0.0 0.00 0.01 0.01 39 1021.1
20260901140555 57 220 0.0 0.0 0.00 0.01 0.01 40 1021.1
20260901135550 57 220 0.0 0.0 0.00 0.01 0.01 41 1021.1
20260901135044 57 219 0.0 0.0 0.00 0.01 0.01 41 1021.1
20260901134539 57 237 0.0 0.0 0.00 0.01 0.01 40 1021.1
20260901134034 57 246 0.0 0.0 0.00 0.01 0.01 40 1020.7
20260901133528 57 235 0.0 0.0 0.00 0.01 0.01 40 1020.7
20260901133023 57 218 0.0 0.0 0.00 0.01 0.01 39 1021.1
20260901132520 57 247 0.0 0.0 0.00 0.01 0.01 39 1020.7
20260901132515 56 226 0.0 0.0 0.00 0.01 0.01 40 1020.7
20260901131508 56 226 0.0 0.0 0.00 0.01 0.01 40 1021.1
20260901131002 56 208 0.0 0.0 0.00 0.01 0.01 41 1020.7
20260901130457 56 222 0.0 0.0 0.00 0.01 0.01 41 1020.7
20260901125951 55 220 0.0 0.0 0.00 0.01 0.01 42 1020.7
20260901125447 55 214 0.0 0.0 0.00 0.01 0.01 42 1020.7
20260901124942 55 213 0.0 0.0 0.00 0.01 0.01 42 1020.7
20260901124437 55 213 0.0 0.0 0.00 0.01 0.01 42 1020.7
20260901123931 56 213 0.0 0.0 0.00 0.01 0.01 40 1020.7
20260901123425 56 213 0.0 0.0 0.00 0.01 0.01 41 1020.7
20260901122921 56 213 0.0 0.0 0.00 0.01 0.01 39 1020.7
20260901122415 56 213 0.0 0.0 0.00 0.01 0.01 40 1020.4
20260901121910 56 207 0.0 0.0 0.00 0.01 0.01 40 1020.7
20260901121405 57 207 0.0 0.0 0.00 0.01 0.01 40 1020.7
20260901121400 57 216 0.0 0.0 0.00 0.01 0.01 40 1020.4
20260901120353 57 224 0.0 0.0 0.00 0.01 0.01 40 1020.7
20260901115848 57 234 0.0 0.0 0.00 0.01 0.01 39 1020.4
20260901115342 57 226 0.0 0.0 0.00 0.01 0.01 38 1020.7
20260901114838 57 231 0.0 0.0 0.00 0.01 0.01 38 1020.4
20260901114332 57 221 0.0 0.0 0.00 0.01 0.01 38 1020.7
20260901113827 57 223 0.0 0.0 0.00 0.01 0.01 39 1020.7
20260901113321 58 222 0.0 0.0 0.00 0.01 0.01 38 1020.7
20260901113316 58 230 0.0 0.0 0.00 0.01 0.01 39 1020.4
20260901112310 58 227 0.0 0.0 0.00 0.01 0.01 39 1020.4
20260901111805 58 233 0.0 0.0 0.00 0.01 0.01 38 1020.4
20260901111259 58 233 0.0 0.0 0.00 0.01 0.01 37 1020.4
20260901110756 59 232 0.0 0.0 0.00 0.01 0.01 37 1020.4
20260901110751 59 210 0.0 0.0 0.00 0.01 0.01 37 1020.1
20260901105744 60 223 0.0 0.0 0.00 0.01 0.01 36 1020.4
20260901105739 60 218 0.0 0.0 0.00 0.01 0.01 35 1020.4
20260901104733 60 220 0.0 0.0 0.00 0.01 0.01 35 1020.4
20260901104228 60 232 0.0 0.0 0.00 0.01 0.01 34 1020.4
20260901103724 60 201 0.0 0.0 0.00 0.01 0.01 34 1020.4
20260901103218 61 208 0.0 0.0 0.00 0.01 0.01 34 1020.1
20260901102713 61 215 0.0 0.0 0.00 0.01 0.01 34 1020.4
20260901102207 61 188 0.0 0.0 0.00 0.01 0.01 33 1020.1
20260901101702 61 193 0.0 0.0 0.00 0.01 0.01 33 1019.7
20260901101157 61 225 0.0 0.0 0.00 0.01 0.01 33 1019.7
20260901100652 61 166 0.0 0.0 0.00 0.01 0.01 33 1019.7
20260901100146 61 278 0.0 0.0 0.00 0.01 0.01 32 1019.7
20260901095641 61 276 0.0 0.0 0.00 0.01 0.01 33 1019.7
20260901095136 61 321 0.0 0.0 0.00 0.01 0.01 32 1019.7
20260901094630 61 151 0.0 0.9 0.00 0.01 0.01 32 1019.7
20260901094125 61 245 0.0 0.9 0.00 0.01 0.01 32 1019.7
20260901093621 61 203 0.0 0.0 0.00 0.01 0.01 33 1020.1
20260901093616 61 285 0.0 0.0 0.00 0.01 0.01 33 1020.1
20260901092609 61 210 0.0 0.0 0.00 0.01 0.01 32 1020.1
20260901092104 61 239 0.0 0.0 0.00 0.01 0.01 32 1020.1
20260901092059 61 302 0.0 0.9 0.00 0.01 0.01 32 1020.1
20260901091054 61 225 0.0 0.9 0.00 0.01 0.01 32 1020.1
20260901090547 60 186 0.0 0.0 0.00 0.01 0.01 32 1019.7
20260901090042 60 200 0.0 0.9 0.01 0.01 0.01 32 1019.7
20260901085537 60 238 0.0 0.9 0.01 0.01 0.01 32 1020.1
20260901085031 59 214 0.0 0.9 0.01 0.01 0.01 32 1020.1
20260901084527 59 233 0.0 0.0 0.01 0.01 0.01 34 1020.4
20260901084021 59 282 0.0 0.0 0.01 0.01 0.01 34 1020.1
20260901083515 59 238 0.0 0.0 0.01 0.01 0.01 35 1020.4
20260901083010 60 237 0.0 0.0 0.01 0.01 0.01 34 1020.1
20260901082505 60 198 0.0 0.0 0.01 0.01 0.01 34 1020.1
20260901082000 60 232 0.0 0.0 0.01 0.01 0.01 34 1020.4
20260901081454 60 238 0.0 0.0 0.01 0.01 0.01 34 1020.1
20260901080949 60 238 0.0 0.0 0.01 0.01 0.01 34 1020.1
20260901080444 60 227 0.0 0.0 0.01 0.01 0.01 34 1020.4
20260901075934 60 234 0.0 0.0 0.00 0.01 0.00 33 1020.1
20260901075429 60 247 0.0 0.0 0.00 0.01 0.00 33 1020.1
20260901074924 60 217 0.0 0.0 0.00 0.01 0.00 33 1020.1
20260901074419 60 242 0.0 0.0 0.00 0.01 0.00 33 1020.1
20260901073913 61 211 0.0 0.0 0.00 0.01 0.00 33 1020.1
20260901073407 61 226 0.0 0.0 0.00 0.01 0.00 33 1020.1
20260901073402 61 336 0.0 0.0 0.00 0.01 0.00 33 1020.1